Погода в Миньковцах

Украина / Хмельницкая область     48°51′14″N   27°06′26″E
темп.,
°C
ветер,
м/с
пор.,
м/с
влажн.,
%
обл.,
%
осадки,
мм/ч
давл.,
гПа
погр.,
м
26 июля, пн
пн2600:00+18вюв32717 0.0 101830
03:00+17вюв35705 0.0 101871
06:00+16вюв34725 0.0 101854
09:00+22юв59596 0.0 1018377
12:00+26ююв7946100 0.0 10181194
15:00+27ююв784299 0.0 10181679
18:00+27ююв575197 0.0 10171160
21:00+21юв3562100 0.0 101774
27 июля, вт
вт2700:00+19юв336346 0.0 101829
03:00+18юв336529 0.0 101841
06:00+17юв346849 0.0 101761
09:00+22ююв596035 0.0 1017345
12:00+27ююв565246 0.8 1017615
15:00+30ю554693 0.8 10161039
18:00+25юз587092 0.1 1016253
21:00+21ююз22795 0.5 101520
28 июля, ср
ср2800:00+20ю22817 0.6 101625
03:00+19ю228147 0.6 101518
06:00+20з228312 0.0 101423
09:00+23ссз467678 0.0 1016416
12:00+27сз34578 0.0 10161008
15:00+30сз35475 0.0 10151447
18:00+30сз23460 0.0 10141293
21:00+24з22653 0.0 101411
29 июля, чт
чт2900:00+22ю117647 0.6 101411
03:00+20ююв228316 0.6 101314
06:00+20ююв238486 0.0 101359
09:00+22ююв238273 0.0 1012107
12:00+29зсз345045 0.0 1013886
15:00+31сз44450 0.0 10121631
18:00+29сз55530 0.0 10121427
21:00+23сз510760 0.0 1013322
30 июля, пт
пт3000:00+19сз37931 0.1 1014127
03:00+18сз34930 0.1 101383
06:00+17ссз33940 0.0 101354
09:00+22зсз11720 0.0 1013377
12:00+27зюз23510 0.0 10121078
15:00+29зюз22440 0.0 10111324
18:00+30ююв21450 0.0 10101000
21:00+24ююв336434 0.0 100927